Weather History for Casper, WY

Change the Weather History Date:

Tuesday, February 12, 2013

  Actual Average Record
Temperature  
Mean Temperature 18 °F 26 °F  
Max Temperature 24 °F 37 °F 61 °F (1962)
Min Temperature 12 °F 15 °F -18 °F (1949)
Degree Days  
Heating Degree Days 47 39  
Month to date heating degree days 446 477  
Since 1 July heating degree days 4397 4854  
Cooling Degree Days 0 0  
Month to date cooling degree days 0 0  
Year to date cooling degree days 0 0  
Moisture  
Dew Point 8 °F    
Average Humidity 63    
Maximum Humidity 68    
Minimum Humidity 58    
Precipitation  
Precipitation 0.00 in 0.02 in 0.30 in (1990)
Month to date precipitation 0.21 0.23  
Year to date precipitation 0.48 0.74  
Snow  
Snow 0.00 in 0.30 in - ()
Month to date snowfall 5.1 4.1  
Since 1 July snowfall 28.3 43.7  
Snow Depth 2.00 in    
Sea Level Pressure  
Sea Level Pressure 30.18 in    
Wind  
Wind Speed 21 mph (SSW)    
Max Wind Speed 31 mph    
Max Gust Speed 38 mph    
Visibility 10 miles    
Events      
T = Trace of Precipitation, MM = Missing Value Source: NWS Daily Summary

Daily Weather History Graph

Daily Weather History Graph

Search for Another Location

Airport:

Trip Planner

Search our weather history database for the weather conditions in past years. The results will help you decide how hot, cold, wet, or windy it might be!

Date:

Astronomy

Feb. 12, 2013 Rise Set
Actual Time 7:06 AM MST 5:33 PM MST
Civil Twilight 6:37 AM MST 6:03 PM MST
Nautical Twilight 6:04 AM MST 6:36 PM MST
Astronomical Twilight 5:31 AM MST 7:09 PM MST
Moon 8:00 AM MST (2/12) 8:43 PM MST (2/12)
Length of Visible Light 11h 25m
Length of Day
10h 26m
Waxing Crescent, 8% of the Moon is Illuminated
Feb 12
Waxing Crescent
Feb 17
First Quarter
Feb 25
Full
Mar 4
Last Quarter
Mar 11
New

Hourly Weather History & Observations

Time (MST) Temp. Windchill Dew Point Humidity Pressure Visibility Wind Dir Wind Speed Gust Speed Precip Events Conditions
12:53 AM 14.0 °F -1.4 °F 3.0 °F 62% 30.18 in - SW 15.0 mph - N/A   Clear
1:53 AM 15.1 °F -0.1 °F 3.9 °F 61% 30.18 in - SSW 15.0 mph - N/A   Mostly Cloudy
2:53 AM 12.9 °F -4.4 °F 3.0 °F 65% 30.19 in - SSW 18.4 mph - N/A   Partly Cloudy
3:53 AM 12.9 °F -5.3 °F 1.9 °F 62% 30.18 in - SW 20.7 mph 27.6 mph N/A   Clear
4:53 AM 12.0 °F -6.9 °F 1.9 °F 64% 30.18 in 10.0 mi SSW 21.9 mph - N/A   Clear
5:53 AM 12.9 °F -6.5 °F 1.9 °F 62% 30.18 in 10.0 mi SSW 24.2 mph 32.2 mph N/A   Clear
6:53 AM 12.9 °F -6.1 °F 1.9 °F 62% 30.20 in 10.0 mi SSW 23.0 mph 32.2 mph N/A   Clear
7:53 AM 14.0 °F -4.3 °F 1.9 °F 59% 30.23 in 10.0 mi SSW 21.9 mph 29.9 mph N/A   Clear
8:53 AM 16.0 °F -2.5 °F 3.9 °F 59% 30.23 in 10.0 mi SSW 24.2 mph 32.2 mph N/A   Clear
9:53 AM 18.0 °F -0.5 °F 7.0 °F 62% 30.23 in 10.0 mi SSW 26.5 mph 36.8 mph N/A   Clear
10:53 AM 19.9 °F 1.8 °F 8.1 °F 60% 30.23 in 10.0 mi SSW 27.6 mph 35.7 mph N/A   Clear
11:53 AM 21.0 °F 4.3 °F 10.0 °F 63% 30.22 in 10.0 mi SSW 24.2 mph 31.1 mph N/A   Clear
12:53 PM 23.0 °F 6.9 °F 10.9 °F 60% 30.19 in 10.0 mi SSW 24.2 mph 31.1 mph N/A   Clear
1:53 PM 21.9 °F 6.5 °F 10.9 °F 63% 30.18 in 10.0 mi SSW 20.7 mph 34.5 mph N/A   Mostly Cloudy
2:53 PM 24.1 °F 8.3 °F 12.0 °F 60% 30.17 in 10.0 mi SSW 24.2 mph 32.2 mph N/A   Scattered Clouds
3:53 PM 24.1 °F 9.4 °F 12.0 °F 60% 30.17 in 10.0 mi SSW 20.7 mph - N/A   Clear
4:53 PM 23.0 °F 8.3 °F 12.0 °F 63% 30.17 in 10.0 mi SSW 19.6 mph - N/A   Clear
5:53 PM 21.9 °F 6.2 °F 12.0 °F 66% 30.16 in 10.0 mi SSW 21.9 mph 25.3 mph N/A   Clear
6:53 PM 21.0 °F 5.0 °F 10.9 °F 65% 30.17 in 10.0 mi SSW 21.9 mph - N/A   Clear
7:53 PM 21.0 °F 5.7 °F 10.9 °F 65% 30.16 in 10.0 mi SSW 19.6 mph - N/A   Clear
8:53 PM 21.9 °F 7.8 °F 12.9 °F 68% 30.18 in 10.0 mi SW 17.3 mph - N/A   Partly Cloudy
9:53 PM 23.0 °F 10.1 °F 12.9 °F 65% 30.16 in - SW 15.0 mph - N/A   Mostly Cloudy
10:53 PM 23.0 °F 8.0 °F 12.9 °F 65% 30.12 in - SSW 20.7 mph - N/A   Clear
11:53 PM 21.9 °F 6.5 °F 12.9 °F 68% 30.11 in - SW 20.7 mph 27.6 mph N/A   Clear